Tracking 29892 objects as of 21-Nov-2024
HD Live streaming from Space Station
objects crossing your sky now

FENGYUN 1C DEB

Track FENGYUN 1C DEB now!
10-day predictions


NORAD ID: 30954
Int'l Code: 1999-025BAU
Perigee: 762.1 km
Apogee: 954.9 km
Inclination: 98.7 °
Period: 102.0 minutes
Semi major axis: 7229 km
RCS: 0.0082 m2 (small)
Launch date: May 10, 1999
Source: People's Republic of China (PRC)
Launch site: Taiyaun Space Center, China (TSC)

Note: This is SATELLITE DEBRIS
Your satellite tracking list
Your tracking list is empty




NASA's NSSDC Master Catalog

Two Line Element Set (TLE):
1 30954U 99025BAU 24325.77209521  .00005176  00000-0  26038-2 0  9995
2 30954  98.7046  69.8146 0133332 211.3055 303.5475 14.12334846909194
Source of the keplerian elements: AFSPC